User: anonymous   Login
Location: Columbia
(38.9520°N, 92.3340°W)
Time: 22:02:37
(UTC-06:00)
Language:

SL-08 RB Rocket - Orbit

View from above orbital plane
View from above orbital plane
View from above satellite
View from above satellite

Ground track
Ground track

The orbit data is extracted from the following two-line orbital elements,

1 26387U 00033D   15057.21662900  .00000639  00000-0  12011-3 0  9992
2 26387 098.0743 126.8383 0028016 128.3793 296.8783 14.67729544784348
Epoch (UTC): 26 February 2015 05:11:56
Eccentricity: 0.0028016
inclination: 98.0743°
perigee height: 648 km
apogee height: 688 km
right ascension of ascending node: 126.8383°
argument of perigee: 128.3793°
revolutions per day: 14.67729544
mean anomaly at epoch: 296.8783°
orbit number at epoch: 78434

The dashed part of the orbit path shows where the satellite is in the earth's shadow,  

DLR